"Pseudo-MPEC" for C07HG32

Created 2019 Feb 19 1:18:13 UT using Find_Orb

Click here for an explanation of pseudo-MPECs

 
 Astrometry: 
     C07HG32  C2019 02 12.34924 11 58 19.35 +04 06 15.2    ~2C9I 20.4 GVNEOCPG96
     C07HG32  C2019 02 12.35483 11 58 17.03 +04 05 27.5    ~2C9I 20.3 GVNEOCPG96
     C07HG32  C2019 02 12.36042 11 58 14.69 +04 04 39.9    ~2C9I 20.4 GVNEOCPG96
     C07HG32  C2019 02 12.36601 11 58 12.40 +04 03 53.1    ~2C9I 20.4 GVNEOCPG96
     C07HG32 KC2019 02 12.39472011 58 00.42 +03 59 45.6    ~2CA3 19.6 GVNEOCPV03
     C07HG32 KC2019 02 12.39780311 57 59.19 +03 59 19.3    ~2CA3 19.9 GVNEOCPV03
     C07HG32 KC2019 02 12.40086311 57 57.92 +03 58 53.5    ~2CA3 19.5 GVNEOCPV03
     C07HG32  C2019 02 12.46201 11 57 32.44 +03 50 15.9    ~2CBX 19.9 GVNEOCPI52
     C07HG32  C2019 02 12.46298 11 57 32.07 +03 50 07.6    ~2CBX 20.5 GVNEOCPI52
     C07HG32  C2019 02 12.46400 11 57 31.63 +03 49 58.9    ~2CBX 20.2 GVNEOCPI52
     C07HG32  C2019 02 12.46497 11 57 31.20 +03 49 50.7    ~2CBX 20.4 GVNEOCPI52
     C07HG32  C2019 02 12.53690 11 57 01.39 +03 39 36.2    ~2CDI 20.4 GVNEOCPI52
     C07HG32  C2019 02 12.53731 11 57 01.21 +03 39 33.1    ~2CDI 20.6 GVNEOCPI52
     C07HG32  C2019 02 12.53773 11 57 01.08 +03 39 29.5    ~2CDI 20.1 GVNEOCPI52
     C07HG32  C2019 02 12.53815 11 57 00.87 +03 39 26.3    ~2CDI 19.7 GVNEOCPI52
     C07HG32 KC2019 02 12sKpSj:FyNAstrometry4:]D3eqMxBG76atu+#@*.g$Z]1$wWW%Fq474
     C07HG32 KC2019 02 12^3=NOkJZnjdVWBjoTnFeKL1wiV[qKGwc[:8d_bD-,bc+T39H3$N_474
     C07HG32 KC2019 02 12K.v5ij'-OCQ6O9mxTZkVnJ^-:c6:J5?XfT!V5.`X9v.,vU+*jP;8474
     C07HG32 KC2019 02 13.g%(EE\!Lb;*!8l-hlslC4^Cg]8*Mq,(Q?p,kXHOYredacted;:BL01
     C07HG32 pC2019 02 130CN.11;^Tgj])uVT(!2*PFDLAp.\:?%h'j'`8[M]r0X(d`)QD4QhL01
     C07HG32 KC2019 02 13%S0nZUHa;`ChCoRVx=p'H;oy)0KRu_]9HHs#p[1X`T'8d%/[a1vVL01
     C07HG32 KC2019 02 13Ooph=;click@iv8.R.6EsoTTV@Pg*/-tu#Ikskbk,)Z]u4ENw[MpL01
     C07HG32 KC2019 02 14.08295711 46 27.91 -00 04 06.2    ~2E33 20.7 GVNEOCPJ95
     C07HG32 KC2019 02 14.10306011 46 19.15 -00 07 03.3    ~2E33 20.0 GVNEOCPJ95
     C07HG32 |C2019 02 14N,q\m_)^2tFW)l=Yca#D4MOoQ7q_?#W!]J:fbL`b*@lv8KV!2Zy-807
     C07HG32 |C2019 02 14_C/;3UFu\,^f'*?/r@u,sunj-v1_\ToQ5\,[2hBJ.#T$BcQ8]i3Q807
     C07HG32 |C2019 02 14$wGU2]Go^i?GlMKhj^(:N;E@s^b;6hereg87B$t8Ljw;cDb7oP'L807
     C07HG32 KC2019 02 15.09481111 39 17.28 -02 33 17.7    ~2F3X 20.3 GVNEOCPJ95
     C07HG32 KC2019 02 15.10925711 39 10.86 -02 35 26.1    ~2F3X 20.0 GVNEOCPJ95
     C07HG32 KC2019 02 15.13581011 38 59.09 -02 39 22.7    ~2F3X 19.9 GVNEOCPJ95
     C07HG32 KC2019 02 16kx#Sn9@,*=1%U]I,R2PnIFE+Lh;l_@WPs[]gNXMYu88*Oa7(sgvwL01
     C07HG32 KC2019 02 16_qq,D,D1Z9mQQ+5'FL/tn_q55S)R*B/!9oFE91ZoJ'F3\]3bl-0+L01
     C07HG32 KC2019 02 16;%6qs+=y(RnSZo/GQlZm8h$wF$r2aE'f[x_@oXsx0forh+D]:kh`L01
     C07HG32 KC2019 02 17:=m$l.E',*VuTM=9KTS=BmCXk7K@Qih2G4@lQr\mmjt1)Fe6=b)`X31
     C07HG32 KC2019 02 17h7:jKZ6A;g9Q5-Bcr%/7SyfMN=MwFo4:_9Ov[j=tA,[=pSCYk9`DX31
     C07HG32 KC2019 02 17=jH+^by38Z#/Ty62C9EhR+3E29e0lexplanation]TnB8VALnU)$X31

Station data:
(474) Mount John Observatory, Lake Tekapo  (S43.987388 E170.464960)  New
   Zealand.  Observers A. C. Gilmore, P. M. Kilmartin. Measurer P. M.
   Kilmartin. 1.0-m f/7.7 reflector + CCD.
(807) Cerro Tololo Observatory, La Serena  (S30.169136 W70.805900)  Chile.
   1.5-m Ritchey-Chrétien.
(G96) Mt. Lemmon Survey  (N32.442754 W110.788720)  US/Arizona.  Observers B.
   M. Africano, E. J. Christensen, G. A. Farneth, D. C. Fuls, A. R. Gibbs, A.
   D. Grauer, H. Groeller, J. A. Johnson, R. A. Kowalski, S. M. Larson, G. J.
   Leonard, R. L. Seaman, F. C. Shelly. 1.5-m reflector + 10K CCD.
(I52) Steward Observatory, Mt. Lemmon Station  (N32.442547 W110.788920)
   US/Arizona.  Observers B. M. Africano, E. J. Christensen, G. A. Farneth,
   D. C. Fuls, A. R. Gibbs, A. D. Grauer, H. Groeller, J. A. Johnson, R. A.
   Kowalski, S. M. Larson, G. J. Leonard, R. L. Seaman, F. C. Shelly. 1.0-m
   reflector + CCD.
(J95) Great Shefford  (N51.474969 W1.447003)  UK.  Observer P. Birtwhistle.
   0.40-m f/6.0 Schmidt-Cassegrain + CCD.
(L01) Višnjan Observatory, Tičan  (N45.290900 E13.749300)  Croatia.
   Observers K. Korlević, E. Pettarin. Measurer E. Pettarin. 1.0-m f/2.9
   reflector + CCD.
(V03) Big Water  (N37.083379 W111.668600)  US/Utah.  Observer D. Rankin.
   0.30-m reflector + CCD.
(X31) Galileo Galilei Observatory, Oro Verde  (S31.823022 W60.520660)
   Argentina.

Orbital elements:  C07HG32
   Perihelion 2019 Jan 23.366353 +/- 0.115 TT =  8:47:32 (JD 2458506.866353)
Epoch 2019 Feb 17.0 TT = JDT 2458531.5   Earth MOID: 0.1661   AutoNEOCP
M  13.69185938 +/- 0.11             (J2000 ecliptic)
n   0.55581941 +/- 0.00204          Peri.  161.23801 +/- 0.10
a   1.46503130 +/- 0.00359          Node   329.56777 +/- 0.011
e   0.2190458 +/- 0.00157           Incl.   34.10688 +/- 0.08
P   1.77/647.68d           H 22.5   G  0.15   U  8.6  
q 1.14412225 +/- 0.000497    Q 1.78594035 +/- 0.00665
From 36 observations 2019 Feb. 12-17; mean residual 0".36
Residuals in arcseconds: 
190212 G96  .42+  .19+    190212 I52  .20-  .27-    190214 807  .18+  .16-    
190212 G96  .35+  .07-    190212 I52  .45+  .29-    190214 807  .21+  .18+    
190212 G96  .00   .21-    190212 I52  .09-  .10+    190214 807  .26+  .72+    
190212 G96  .42+  .45+    190212 474  .09+  .49-    190215 J95  .41+  .10+    
190212 V03  .73-  .02-    190212 474  .11+  .60-    190215 J95  .04+  .07+    
190212 V03  .00   .11-    190212 474  .43+  .38+    190215 J95  .21-  .57-    
190212 V03  .00   .11+    190213 L01  .08+  .21-    190216 L01  .48+  .55+    
190212 I52  .14-  .04-    190213 L01  .16-  .37-    190216 L01  .16+  .49-    
190212 I52  .36+  .07-    190213 L01  .07-  .02+    190216 L01  .22-  .83-    
190212 I52  .13+  .08-    190213 L01  .38+  .03-    190217 X31  .46-  .16-    
190212 I52  .27-  .01-    190214 J95  .24+  .43+    190217 X31  .70+  .82+    
190212 I52  .04-  .68-    190214 J95  .87-  .16+    190217 X31  .29-  .15-    

Ephemerides (geocentric):
Date (UTC) HH   RA              Dec         delta   r     elong  mag " sig PA
---- -- -- --  -------------   -----------  ------ ------ -----  --- ---- ---
2019 02 19 01  11 09 55.099   -12 12 36.83  .19247 1.1614 151.7 20.4 .418 115
2019 02 19 02  11 09 35.991   -12 18 33.51  .19253 1.1615 151.7 20.4 .425 115
2019 02 19 03  11 09 16.876   -12 24 29.82  .19259 1.1615 151.7 20.4 .432 115
2019 02 19 04  11 08 57.755   -12 30 25.74  .19265 1.1616 151.7 20.4 .440 115
2019 02 19 05  11 08 38.627   -12 36 21.28  .19271 1.1616 151.6 20.4 .447 115
2019 02 19 06  11 08 19.493   -12 42 16.42  .19277 1.1617 151.6 20.4 .455 115
2019 02 19 07  11 08 00.353   -12 48 11.16  .19283 1.1617 151.6 20.4 .462 115
2019 02 19 08  11 07 41.206   -12 54 05.50  .19289 1.1618 151.6 20.4 .470 115
2019 02 19 09  11 07 22.054   -12 59 59.43  .19296 1.1618 151.6 20.4 .478 115
2019 02 19 10  11 07 02.895   -13 05 52.95  .19302 1.1619 151.6 20.4 .485 115
2019 02 19 11  11 06 43.731   -13 11 46.06  .19309 1.1619 151.6 20.4 .493 115
2019 02 19 12  11 06 24.561   -13 17 38.75  .19316 1.1620 151.6 20.4 .501 115
2019 02 19 13  11 06 05.385   -13 23 31.01  .19322 1.1620 151.6 20.4 .509 115
2019 02 19 14  11 05 46.205   -13 29 22.84  .19329 1.1621 151.5 20.4 .517 115
2019 02 19 15  11 05 27.019   -13 35 14.24  .19336 1.1622 151.5 20.4 .525 115
2019 02 19 16  11 05 07.827   -13 41 05.20  .19344 1.1622 151.5 20.4 .533 115
2019 02 19 17  11 04 48.631   -13 46 55.72  .19351 1.1623 151.5 20.4 .541 115
2019 02 19 18  11 04 29.430   -13 52 45.80  .19358 1.1623 151.5 20.4 .549 115
2019 02 19 19  11 04 10.224   -13 58 35.42  .19366 1.1624 151.5 20.4 .557 116
2019 02 19 20  11 03 51.013   -14 04 24.59  .19373 1.1624 151.5 20.4 .565 116
2019 02 19 21  11 03 31.798   -14 10 13.31  .19381 1.1625 151.4 20.4 .574 116
2019 02 19 22  11 03 12.579   -14 16 01.56  .19389 1.1625 151.4 20.4 .582 116
2019 02 19 23  11 02 53.355   -14 21 49.34  .19396 1.1626 151.4 20.4 .590 116
2019 02 20 00  11 02 34.128   -14 27 36.66  .19404 1.1626 151.4 20.4 .599 116
2019 02 20 01  11 02 14.896   -14 33 23.49  .19412 1.1627 151.4 20.4 .607 116
2019 02 20 02  11 01 55.660   -14 39 09.86  .19421 1.1628 151.3 20.4 .616 116
2019 02 20 03  11 01 36.421   -14 44 55.73  .19429 1.1628 151.3 20.4 .624 116
2019 02 20 04  11 01 17.178   -14 50 41.12  .19437 1.1629 151.3 20.4 .633 116
2019 02 20 05  11 00 57.931   -14 56 26.02  .19446 1.1629 151.3 20.4 .642 116
2019 02 20 06  11 00 38.681   -15 02 10.43  .19454 1.1630 151.3 20.4 .650 116
2019 02 20 07  11 00 19.428   -15 07 54.34  .19463 1.1630 151.2 20.4 .659 116
2019 02 20 08  11 00 00.172   -15 13 37.74  .19472 1.1631 151.2 20.4 .668 116
2019 02 20 09  10 59 40.913   -15 19 20.64  .19481 1.1631 151.2 20.4 .677 117
2019 02 20 10  10 59 21.650   -15 25 03.03  .19490 1.1632 151.2 20.4 .685 117
2019 02 20 11  10 59 02.386   -15 30 44.91  .19499 1.1633 151.1 20.4 .694 117
2019 02 20 12  10 58 43.118   -15 36 26.27  .19508 1.1633 151.1 20.4 .703 117
2019 02 20 13  10 58 23.849   -15 42 07.11  .19517 1.1634 151.1 20.4 .712 117
2019 02 20 14  10 58 04.576   -15 47 47.42  .19527 1.1634 151.0 20.4 .721 117
2019 02 20 15  10 57 45.302   -15 53 27.20  .19536 1.1635 151.0 20.4 .730 117
2019 02 20 16  10 57 26.026   -15 59 06.46  .19546 1.1635 151.0 20.4 .740 117
2019 02 20 17  10 57 06.747   -16 04 45.17  .19555 1.1636 151.0 20.4 .749 117
2019 02 20 18  10 56 47.467   -16 10 23.35  .19565 1.1636 150.9 20.5 .758 117
2019 02 20 19  10 56 28.185   -16 16 00.98  .19575 1.1637 150.9 20.5 .767 117
2019 02 20 20  10 56 08.902   -16 21 38.07  .19585 1.1638 150.9 20.5 .776 118
2019 02 20 21  10 55 49.617   -16 27 14.61  .19595 1.1638 150.8 20.5 .786 118
2019 02 20 22  10 55 30.331   -16 32 50.60  .19605 1.1639 150.8 20.5 .795 118
2019 02 20 23  10 55 11.043   -16 38 26.02  .19615 1.1639 150.8 20.5 .805 118
2019 02 21 00  10 54 51.755   -16 44 00.89  .19626 1.1640 150.7 20.5 .814 118